owner,sensor,date,latitude,longitude,vertical_datum,wind_speed,wind_to_direction,wind_speed_of_gust,qcFlag 
TCOON,ioos:station:TCOON:003:1,2009-03-01T00:00:00Z,26.8015,-97.4706,0.0,7.9,9.0,9.7,'11111222,11111222,11111222' 
TCOON,ioos:station:TCOON:003:1,2009-03-01T02:00:00Z,26.8015,-97.4706,0.0,6.0,360.0,6.8,'11111222,11144222,11111222' 
TCOON,ioos:station:TCOON:003:1,2009-03-01T03:00:00Z,26.8015,-97.4706,0.0,5.1,359.0,5.9,'11111222,11111222,11111222' 
TCOON,ioos:station:TCOON:003:1,2009-03-01T04:00:00Z,26.8015,-97.4706,0.0,7.8,8.0,9.3,'11111222,11111222,11111222' 
TCOON,ioos:station:TCOON:003:1,2009-03-01T05:00:00Z,26.8015,-97.4706,0.0,7.2,5.0,8.4,'11111222,11111222,11111222' 
TCOON,ioos:station:TCOON:003:1,2009-03-01T06:00:00Z,26.8015,-97.4706,0.0,7.3,4.0,8.7,'11111222,11111222,11111222' 
TCOON,ioos:station:TCOON:003:1,2009-03-01T07:00:00Z,26.8015,-97.4706,0.0,6.0,357.0,7.1,'11111222,11111222,11111222' 
TCOON,ioos:station:TCOON:003:1,2009-03-01T08:00:00Z,26.8015,-97.4706,0.0,7.6,12.0,9.0,'11111222,11111222,11111222' 
TCOON,ioos:station:TCOON:003:1,2009-03-01T09:00:00Z,26.8015,-97.4706,0.0,8.0,5.0,9.2,'11111222,11111222,11111222' 
TCOON,ioos:station:TCOON:003:1,2009-03-01T10:00:00Z,26.8015,-97.4706,0.0,7.7,3.0,9.2,'11111222,11111222,11111222' 
TCOON,ioos:station:TCOON:003:1,2009-03-01T11:00:00Z,26.8015,-97.4706,0.0,6.9,3.0,8.6,'11111222,11111222,11111222' 
TCOON,ioos:station:TCOON:003:1,2009-03-01T12:00:00Z,26.8015,-97.4706,0.0,7.0,8.0,8.5,'11111222,11111222,11111222' 
TCOON,ioos:station:TCOON:003:1,2009-03-01T13:00:00Z,26.8015,-97.4706,0.0,8.8,1.0,10.7,'11111222,11111222,11111222' 
TCOON,ioos:station:TCOON:003:1,2009-03-01T14:00:00Z,26.8015,-97.4706,0.0,11.7,3.0,14.2,'11111222,11111222,11111222' 
TCOON,ioos:station:TCOON:003:1,2009-03-01T15:00:00Z,26.8015,-97.4706,0.0,10.8,4.0,12.4,'11111222,11111222,11111222' 
TCOON,ioos:station:TCOON:003:1,2009-03-01T16:00:00Z,26.8015,-97.4706,0.0,11.8,5.0,13.7,'11111222,11111222,11111222' 
TCOON,ioos:station:TCOON:003:1,2009-03-01T17:00:00Z,26.8015,-97.4706,0.0,10.0,7.0,11.7,'11111222,11111222,11111222' 
TCOON,ioos:station:TCOON:003:1,2009-03-01T18:00:00Z,26.8015,-97.4706,0.0,11.2,13.0,12.7,'11111222,11111222,11111222' 
TCOON,ioos:station:TCOON:003:1,2009-03-01T19:00:00Z,26.8015,-97.4706,0.0,8.0,34.0,9.0,'11111222,11111222,11111222' 
TCOON,ioos:station:TCOON:003:1,2009-03-01T20:00:00Z,26.8015,-97.4706,0.0,6.9,26.0,9.5,'11111222,11111222,11111222' 
TCOON,ioos:station:TCOON:003:1,2009-03-01T21:00:00Z,26.8015,-97.4706,0.0,5.9,45.0,8.0,'11111222,11111222,11111222' 
TCOON,ioos:station:TCOON:003:1,2009-03-01T22:00:00Z,26.8015,-97.4706,0.0,4.7,44.0,5.6,'11111222,11111222,11111222' 
TCOON,ioos:station:TCOON:003:1,2009-03-01T23:00:00Z,26.8015,-97.4706,0.0,3.5,63.0,4.2,'11111222,11111222,11111222' 
TCOON,ioos:station:TCOON:003:1,2009-03-02T00:00:00Z,26.8015,-97.4706,0.0,2.8,85.0,3.1,'11111222,11111222,11111222' 
TCOON,ioos:station:TCOON:003:1,2009-03-02T01:00:00Z,26.8015,-97.4706,0.0,2.1,108.0,2.3,'11111222,11111222,11111222' 
TCOON,ioos:station:TCOON:003:1,2009-03-02T02:00:00Z,26.8015,-97.4706,0.0,2.0,153.0,2.2,'11111222,11111222,11111222' 
TCOON,ioos:station:TCOON:003:1,2009-03-02T03:00:00Z,26.8015,-97.4706,0.0,1.9,237.0,2.1,'11111222,11111222,11111222' 
TCOON,ioos:station:TCOON:003:1,2009-03-02T04:00:00Z,26.8015,-97.4706,0.0,1.5,208.0,1.7,'11111222,11111222,11111222' 
TCOON,ioos:station:TCOON:003:1,2009-03-02T05:00:00Z,26.8015,-97.4706,0.0,2.4,232.0,2.6,'11111222,11111222,11111222' 
TCOON,ioos:station:TCOON:003:1,2009-03-02T06:00:00Z,26.8015,-97.4706,0.0,1.2,205.0,1.6,'11111222,11111222,11111222' 
TCOON,ioos:station:TCOON:003:1,2009-03-02T07:00:00Z,26.8015,-97.4706,0.0,0.5,23.0,0.7,'11111222,11111222,11111222' 
TCOON,ioos:station:TCOON:003:1,2009-03-02T08:00:00Z,26.8015,-97.4706,0.0,1.1,258.0,1.3,'11111222,11111222,11111222' 
TCOON,ioos:station:TCOON:003:1,2009-03-02T09:00:00Z,26.8015,-97.4706,0.0,2.6,300.0,3.0,'11111222,11111222,11111222' 
TCOON,ioos:station:TCOON:003:1,2009-03-02T10:00:00Z,26.8015,-97.4706,0.0,3.1,290.0,4.3,'11111222,11111222,11111222' 
TCOON,ioos:station:TCOON:003:1,2009-03-02T11:00:00Z,26.8015,-97.4706,0.0,3.1,300.0,3.6,'11111222,11111222,11111222' 
TCOON,ioos:station:TCOON:003:1,2009-03-02T12:00:00Z,26.8015,-97.4706,0.0,3.4,288.0,4.4,'11111222,11111222,11111222' 
TCOON,ioos:station:TCOON:003:1,2009-03-02T13:00:00Z,26.8015,-97.4706,0.0,2.8,313.0,3.6,'11111222,11111222,11111222' 
TCOON,ioos:station:TCOON:003:1,2009-03-02T14:00:00Z,26.8015,-97.4706,0.0,2.6,328.0,2.9,'11111222,11111222,11111222' 
TCOON,ioos:station:TCOON:003:1,2009-03-02T15:00:00Z,26.8015,-97.4706,0.0,2.7,356.0,2.9,'11111222,11111222,11111222' 
TCOON,ioos:station:TCOON:003:1,2009-03-02T16:00:00Z,26.8015,-97.4706,0.0,1.8,346.0,2.2,'11111222,11111222,11111222' 
TCOON,ioos:station:TCOON:003:1,2009-03-02T17:00:00Z,26.8015,-97.4706,0.0,2.5,129.0,3.1,'11111222,11111222,11111222' 
TCOON,ioos:station:TCOON:003:1,2009-03-02T18:00:00Z,26.8015,-97.4706,0.0,3.5,146.0,4.4,'11111222,11111222,11111222' 
TCOON,ioos:station:TCOON:003:1,2009-03-02T19:00:00Z,26.8015,-97.4706,0.0,6.9,132.0,8.7,'11111222,11111222,11111222' 
TCOON,ioos:station:TCOON:003:1,2009-03-02T20:00:00Z,26.8015,-97.4706,0.0,6.4,141.0,7.5,'11111222,11111222,11111222' 
TCOON,ioos:station:TCOON:003:1,2009-03-02T21:00:00Z,26.8015,-97.4706,0.0,7.0,124.0,8.4,'11111222,11111222,11111222' 
TCOON,ioos:station:TCOON:003:1,2009-03-02T22:00:00Z,26.8015,-97.4706,0.0,7.1,124.0,8.5,'11111222,11111222,11111222' 
TCOON,ioos:station:TCOON:003:1,2009-03-02T23:00:00Z,26.8015,-97.4706,0.0,7.3,138.0,8.9,'11111222,11111222,11111222' 
TCOON,ioos:station:TCOON:003:1,2009-03-03T00:00:00Z,26.8015,-97.4706,0.0,7.8,142.0,8.7,'11111222,11111222,11111222' 
TCOON,ioos:station:TCOON:003:1,2009-03-03T01:00:00Z,26.8015,-97.4706,0.0,6.3,149.0,7.1,'11111222,11111222,11111222' 
TCOON,ioos:station:TCOON:003:1,2009-03-03T02:00:00Z,26.8015,-97.4706,0.0,5.0,157.0,5.6,'11111222,11111222,11111222' 
TCOON,ioos:station:TCOON:003:1,2009-03-03T03:00:00Z,26.8015,-97.4706,0.0,5.0,154.0,5.7,'11111222,11111222,11111222' 
TCOON,ioos:station:TCOON:003:1,2009-03-03T04:00:00Z,26.8015,-97.4706,0.0,4.9,159.0,5.5,'11111222,11111222,11111222' 
TCOON,ioos:station:TCOON:003:1,2009-03-03T05:00:00Z,26.8015,-97.4706,0.0,5.9,171.0,6.7,'11111222,11111222,11111222' 
TCOON,ioos:station:TCOON:003:1,2009-03-03T06:00:00Z,26.8015,-97.4706,0.0,6.1,176.0,7.0,'11111222,11111222,11111222' 
TCOON,ioos:station:TCOON:003:1,2009-03-03T07:00:00Z,26.8015,-97.4706,0.0,3.6,184.0,4.2,'11111222,11111222,11111222' 
TCOON,ioos:station:TCOON:003:1,2009-03-03T08:00:00Z,26.8015,-97.4706,0.0,4.9,157.0,5.7,'11111222,11111222,11111222' 
TCOON,ioos:station:TCOON:003:1,2009-03-03T09:00:00Z,26.8015,-97.4706,0.0,4.0,145.0,4.6,'11111222,11111222,11111222' 
TCOON,ioos:station:TCOON:003:1,2009-03-03T10:00:00Z,26.8015,-97.4706,0.0,4.0,142.0,4.7,'11111222,11111222,11111222' 
TCOON,ioos:station:TCOON:003:1,2009-03-03T11:00:00Z,26.8015,-97.4706,0.0,3.7,143.0,4.2,'11111222,11111222,11111222' 
TCOON,ioos:station:TCOON:003:1,2009-03-03T12:00:00Z,26.8015,-97.4706,0.0,4.1,137.0,4.5,'11111222,11111222,11111222' 
TCOON,ioos:station:TCOON:003:1,2009-03-03T13:00:00Z,26.8015,-97.4706,0.0,4.0,125.0,4.7,'11111222,11111222,11111222' 
TCOON,ioos:station:TCOON:003:1,2009-03-03T14:00:00Z,26.8015,-97.4706,0.0,5.2,142.0,6.3,'11111222,11111222,11111222' 
TCOON,ioos:station:TCOON:003:1,2009-03-03T15:00:00Z,26.8015,-97.4706,0.0,6.5,160.0,7.4,'11111222,11111222,11111222' 
TCOON,ioos:station:TCOON:003:1,2009-03-03T16:00:00Z,26.8015,-97.4706,0.0,6.0,180.0,6.7,'11111222,11111222,11111222' 
TCOON,ioos:station:TCOON:003:1,2009-03-03T17:00:00Z,26.8015,-97.4706,0.0,6.1,181.0,7.0,'11111222,11111222,11111222' 
TCOON,ioos:station:TCOON:003:1,2009-03-03T18:00:00Z,26.8015,-97.4706,0.0,7.9,162.0,8.9,'11111222,11111222,11111222' 
TCOON,ioos:station:TCOON:003:1,2009-03-03T19:00:00Z,26.8015,-97.4706,0.0,8.6,147.0,9.9,'11111222,11111222,11111222' 
TCOON,ioos:station:TCOON:003:1,2009-03-03T20:00:00Z,26.8015,-97.4706,0.0,9.9,144.0,11.7,'11111222,11111222,11111222' 
TCOON,ioos:station:TCOON:003:1,2009-03-03T21:00:00Z,26.8015,-97.4706,0.0,10.4,150.0,13.0,'11111222,11111222,11111222' 
TCOON,ioos:station:TCOON:003:1,2009-03-03T22:00:00Z,26.8015,-97.4706,0.0,9.4,151.0,11.2,'11111222,11111222,11111222' 
TCOON,ioos:station:TCOON:003:1,2009-03-03T23:00:00Z,26.8015,-97.4706,0.0,9.4,154.0,11.3,'11111222,11111222,11111222' 
TCOON,ioos:station:TCOON:003:1,2009-03-04T00:00:00Z,26.8015,-97.4706,0.0,8.2,155.0,9.9,'11111222,11111222,11111222' 
TCOON,ioos:station:TCOON:003:1,2009-03-04T01:00:00Z,26.8015,-97.4706,0.0,7.7,149.0,9.1,'11111222,11111222,11111222' 
TCOON,ioos:station:TCOON:003:1,2009-03-04T02:00:00Z,26.8015,-97.4706,0.0,7.8,148.0,9.4,'11111222,11111222,11111222' 
TCOON,ioos:station:TCOON:003:1,2009-03-04T03:00:00Z,26.8015,-97.4706,0.0,7.3,155.0,8.3,'11111222,11111222,11111222' 
TCOON,ioos:station:TCOON:003:1,2009-03-04T04:00:00Z,26.8015,-97.4706,0.0,7.0,158.0,8.7,'11111222,11111222,11111222' 
TCOON,ioos:station:TCOON:003:1,2009-03-04T05:00:00Z,26.8015,-97.4706,0.0,7.4,164.0,8.9,'11111222,11111222,11111222' 
TCOON,ioos:station:TCOON:003:1,2009-03-04T06:00:00Z,26.8015,-97.4706,0.0,7.5,165.0,8.6,'11111222,11111222,11111222' 
TCOON,ioos:station:TCOON:003:1,2009-03-04T07:00:00Z,26.8015,-97.4706,0.0,7.9,165.0,9.0,'11111222,11111222,11111222' 
TCOON,ioos:station:TCOON:003:1,2009-03-04T08:00:00Z,26.8015,-97.4706,0.0,7.0,167.0,8.6,'11111222,11111222,11111222' 
TCOON,ioos:station:TCOON:003:1,2009-03-04T09:00:00Z,26.8015,-97.4706,0.0,5.7,161.0,6.5,'11111222,11111222,11111222' 
TCOON,ioos:station:TCOON:003:1,2009-03-04T10:00:00Z,26.8015,-97.4706,0.0,6.0,163.0,6.8,'11111222,11111222,11111222' 
TCOON,ioos:station:TCOON:003:1,2009-03-04T11:00:00Z,26.8015,-97.4706,0.0,6.0,168.0,6.8,'11111222,11111222,11111222' 
TCOON,ioos:station:TCOON:003:1,2009-03-04T12:00:00Z,26.8015,-97.4706,0.0,4.9,165.0,5.4,'11111222,11111222,11111222' 
TCOON,ioos:station:TCOON:003:1,2009-03-04T13:00:00Z,26.8015,-97.4706,0.0,5.5,173.0,6.3,'11111222,11111222,11111222' 
TCOON,ioos:station:TCOON:003:1,2009-03-04T14:00:00Z,26.8015,-97.4706,0.0,5.7,169.0,6.5,'11111222,11111222,11111222' 
TCOON,ioos:station:TCOON:003:1,2009-03-04T15:00:00Z,26.8015,-97.4706,0.0,6.7,165.0,8.2,'11111222,11111222,11111222' 
TCOON,ioos:station:TCOON:003:1,2009-03-04T16:00:00Z,26.8015,-97.4706,0.0,7.9,164.0,10.4,'11111222,11111222,11111222' 
TCOON,ioos:station:TCOON:003:1,2009-03-04T17:00:00Z,26.8015,-97.4706,0.0,9.2,166.0,10.8,'11111222,11111222,11111222' 
TCOON,ioos:station:TCOON:003:1,2009-03-04T18:00:00Z,26.8015,-97.4706,0.0,10.2,169.0,12.1,'11111222,11111222,11111222' 
TCOON,ioos:station:TCOON:003:1,2009-03-04T19:00:00Z,26.8015,-97.4706,0.0,9.1,164.0,10.4,'11111222,11111222,11111222' 
TCOON,ioos:station:TCOON:003:1,2009-03-04T20:00:00Z,26.8015,-97.4706,0.0,12.4,163.0,14.8,'11111222,11111222,11111222' 
TCOON,ioos:station:TCOON:003:1,2009-03-04T21:00:00Z,26.8015,-97.4706,0.0,11.8,148.0,15.2,'11111222,11111222,11111222' 
TCOON,ioos:station:TCOON:003:1,2009-03-04T22:00:00Z,26.8015,-97.4706,0.0,11.9,151.0,14.3,'11111222,11111222,11111222' 
TCOON,ioos:station:TCOON:003:1,2009-03-04T23:00:00Z,26.8015,-97.4706,0.0,11.6,151.0,14.1,'11111222,11111222,11111222' 
TCOON,ioos:station:TCOON:003:1,2009-03-05T00:00:00Z,26.8015,-97.4706,0.0,8.8,151.0,10.9,'11111222,11111222,11111222' 
TCOON,ioos:station:TCOON:003:1,2009-03-05T01:00:00Z,26.8015,-97.4706,0.0,9.3,154.0,11.0,'11111222,11111222,11111222' 
TCOON,ioos:station:TCOON:003:1,2009-03-05T02:00:00Z,26.8015,-97.4706,0.0,9.9,159.0,11.6,'11111222,11111222,11111222' 
TCOON,ioos:station:TCOON:003:1,2009-03-05T03:00:00Z,26.8015,-97.4706,0.0,8.9,166.0,10.3,'11111222,11111222,11111222' 
TCOON,ioos:station:TCOON:003:1,2009-03-05T04:00:00Z,26.8015,-97.4706,0.0,8.8,166.0,10.0,'11111222,11111222,11111222' 
TCOON,ioos:station:TCOON:003:1,2009-03-05T05:00:00Z,26.8015,-97.4706,0.0,7.7,171.0,10.4,'11111222,11111222,11111222' 
TCOON,ioos:station:TCOON:003:1,2009-03-05T06:00:00Z,26.8015,-97.4706,0.0,8.8,179.0,10.1,'11111222,11111222,11111222' 
TCOON,ioos:station:TCOON:003:1,2009-03-05T07:00:00Z,26.8015,-97.4706,0.0,6.0,186.0,6.7,'11111222,11111222,11111222' 
TCOON,ioos:station:TCOON:003:1,2009-03-05T08:00:00Z,26.8015,-97.4706,0.0,7.9,174.0,9.3,'11111222,11111222,11111222' 
TCOON,ioos:station:TCOON:003:1,2009-03-05T09:00:00Z,26.8015,-97.4706,0.0,7.8,174.0,8.6,'11111222,11111222,11111222' 
TCOON,ioos:station:TCOON:003:1,2009-03-05T10:00:00Z,26.8015,-97.4706,0.0,8.0,170.0,9.0,'11111222,11111222,11111222' 
TCOON,ioos:station:TCOON:003:1,2009-03-05T11:00:00Z,26.8015,-97.4706,0.0,8.9,163.0,10.8,'11111222,11111222,11111222' 
TCOON,ioos:station:TCOON:003:1,2009-03-05T12:00:00Z,26.8015,-97.4706,0.0,7.5,164.0,8.8,'11111222,11111222,11111222' 
TCOON,ioos:station:TCOON:003:1,2009-03-05T13:00:00Z,26.8015,-97.4706,0.0,7.4,161.0,9.1,'11111222,11111222,11111222' 
TCOON,ioos:station:TCOON:003:1,2009-03-05T14:00:00Z,26.8015,-97.4706,0.0,9.3,169.0,10.9,'11111222,11111222,11111222' 
TCOON,ioos:station:TCOON:003:1,2009-03-05T15:00:00Z,26.8015,-97.4706,0.0,9.4,173.0,11.1,'11111222,11111222,11111222' 
TCOON,ioos:station:TCOON:003:1,2009-03-05T16:00:00Z,26.8015,-97.4706,0.0,11.0,165.0,12.3,'11111222,11111222,11111222' 
TCOON,ioos:station:TCOON:003:1,2009-03-05T17:00:00Z,26.8015,-97.4706,0.0,10.4,162.0,12.5,'11111222,11111222,11111222' 
TCOON,ioos:station:TCOON:003:1,2009-03-05T18:00:00Z,26.8015,-97.4706,0.0,11.0,164.0,12.5,'11111222,11111222,11111222' 
TCOON,ioos:station:TCOON:003:1,2009-03-05T19:00:00Z,26.8015,-97.4706,0.0,10.2,158.0,12.1,'11111222,11111222,11111222' 
TCOON,ioos:station:TCOON:003:1,2009-03-05T20:00:00Z,26.8015,-97.4706,0.0,10.7,157.0,13.1,'11111222,11111222,11111222' 
TCOON,ioos:station:TCOON:003:1,2009-03-05T21:00:00Z,26.8015,-97.4706,0.0,10.9,150.0,14.1,'11111222,11111222,11111222' 
TCOON,ioos:station:TCOON:003:1,2009-03-05T22:00:00Z,26.8015,-97.4706,0.0,11.5,152.0,13.6,'11111222,11111222,11111222' 
TCOON,ioos:station:TCOON:003:1,2009-03-05T23:00:00Z,26.8015,-97.4706,0.0,11.4,154.0,13.2,'11111222,11111222,11111222' 
TCOON,ioos:station:TCOON:003:1,2009-03-06T00:00:00Z,26.8015,-97.4706,0.0,10.3,158.0,11.9,'11111222,11111222,11111222' 
TCOON,ioos:station:TCOON:003:1,2009-03-06T01:00:00Z,26.8015,-97.4706,0.0,8.8,152.0,10.2,'11111222,11111222,11111222' 
TCOON,ioos:station:TCOON:003:1,2009-03-06T02:00:00Z,26.8015,-97.4706,0.0,9.1,157.0,11.0,'11111222,11111222,11111222' 
TCOON,ioos:station:TCOON:003:1,2009-03-06T03:00:00Z,26.8015,-97.4706,0.0,9.6,156.0,11.7,'11111222,11111222,11111222' 
TCOON,ioos:station:TCOON:003:1,2009-03-06T04:00:00Z,26.8015,-97.4706,0.0,8.8,156.0,10.1,'11111222,11111222,11111222' 
TCOON,ioos:station:TCOON:003:1,2009-03-06T05:00:00Z,26.8015,-97.4706,0.0,9.9,167.0,11.7,'11111222,11111222,11111222' 
TCOON,ioos:station:TCOON:003:1,2009-03-06T06:00:00Z,26.8015,-97.4706,0.0,9.4,164.0,11.2,'11111222,11111222,11111222' 
TCOON,ioos:station:TCOON:003:1,2009-03-06T07:00:00Z,26.8015,-97.4706,0.0,9.0,169.0,10.7,'11111222,11111222,11111222' 
TCOON,ioos:station:TCOON:003:1,2009-03-06T08:00:00Z,26.8015,-97.4706,0.0,9.8,167.0,11.1,'11111222,11111222,11111222' 
TCOON,ioos:station:TCOON:003:1,2009-03-06T09:00:00Z,26.8015,-97.4706,0.0,9.9,167.0,11.3,'11111222,11111222,11111222' 
TCOON,ioos:station:TCOON:003:1,2009-03-06T10:00:00Z,26.8015,-97.4706,0.0,9.7,165.0,12.0,'11111222,11111222,11111222' 
TCOON,ioos:station:TCOON:003:1,2009-03-06T11:00:00Z,26.8015,-97.4706,0.0,9.0,162.0,10.1,'11111222,11111222,11111222' 
TCOON,ioos:station:TCOON:003:1,2009-03-06T12:00:00Z,26.8015,-97.4706,0.0,7.7,162.0,9.1,'11111222,11111222,11111222' 
TCOON,ioos:station:TCOON:003:1,2009-03-06T13:00:00Z,26.8015,-97.4706,0.0,8.7,162.0,10.4,'11111222,11111222,11111222' 
TCOON,ioos:station:TCOON:003:1,2009-03-06T14:00:00Z,26.8015,-97.4706,0.0,9.1,165.0,10.9,'11111222,11111222,11111222' 
TCOON,ioos:station:TCOON:003:1,2009-03-06T15:00:00Z,26.8015,-97.4706,0.0,10.7,171.0,12.4,'11111222,11111222,11111222' 
TCOON,ioos:station:TCOON:003:1,2009-03-06T16:00:00Z,26.8015,-97.4706,0.0,11.8,175.0,13.7,'11111222,11111222,11111222' 
TCOON,ioos:station:TCOON:003:1,2009-03-06T17:00:00Z,26.8015,-97.4706,0.0,13.1,165.0,15.3,'11111222,11111222,11111222' 
TCOON,ioos:station:TCOON:003:1,2009-03-06T18:00:00Z,26.8015,-97.4706,0.0,12.4,166.0,14.7,'11111222,11111222,11111222' 
TCOON,ioos:station:TCOON:003:1,2009-03-06T19:00:00Z,26.8015,-97.4706,0.0,11.8,166.0,14.7,'11111222,11111222,11111222' 
TCOON,ioos:station:TCOON:003:1,2009-03-06T20:00:00Z,26.8015,-97.4706,0.0,12.0,158.0,14.7,'11111222,11111222,11111222' 
TCOON,ioos:station:TCOON:003:1,2009-03-06T21:00:00Z,26.8015,-97.4706,0.0,13.1,149.0,15.6,'11111222,11111222,11111222' 
TCOON,ioos:station:TCOON:003:1,2009-03-06T22:00:00Z,26.8015,-97.4706,0.0,12.8,151.0,15.1,'11111222,11111222,11111222' 
TCOON,ioos:station:TCOON:003:1,2009-03-06T23:00:00Z,26.8015,-97.4706,0.0,10.8,156.0,13.1,'11111222,11111222,11111222' 
TCOON,ioos:station:TCOON:003:1,2009-03-07T00:00:00Z,26.8015,-97.4706,0.0,10.1,149.0,11.9,'11111222,11111222,11111222' 
TCOON,ioos:station:TCOON:003:1,2009-03-07T01:00:00Z,26.8015,-97.4706,0.0,8.9,150.0,10.8,'11111222,11111222,11111222' 
TCOON,ioos:station:TCOON:003:1,2009-03-07T02:00:00Z,26.8015,-97.4706,0.0,9.6,152.0,11.1,'11111222,11111222,11111222' 
TCOON,ioos:station:TCOON:003:1,2009-03-07T03:00:00Z,26.8015,-97.4706,0.0,10.0,153.0,11.4,'11111222,11111222,11111222' 
TCOON,ioos:station:TCOON:003:1,2009-03-07T04:00:00Z,26.8015,-97.4706,0.0,9.7,154.0,11.4,'11111222,11111222,11111222' 
TCOON,ioos:station:TCOON:003:1,2009-03-07T05:00:00Z,26.8015,-97.4706,0.0,10.0,154.0,12.4,'11111222,11111222,11111222' 
TCOON,ioos:station:TCOON:003:1,2009-03-07T06:00:00Z,26.8015,-97.4706,0.0,11.6,157.0,14.1,'11111222,11111222,11111222' 
TCOON,ioos:station:TCOON:003:1,2009-03-07T07:00:00Z,26.8015,-97.4706,0.0,11.0,158.0,12.8,'11111222,11111222,11111222' 
TCOON,ioos:station:TCOON:003:1,2009-03-07T08:00:00Z,26.8015,-97.4706,0.0,11.4,156.0,13.5,'11111222,11111222,11111222' 
TCOON,ioos:station:TCOON:003:1,2009-03-07T09:00:00Z,26.8015,-97.4706,0.0,10.6,162.0,12.3,'11111222,11111222,11111222' 
TCOON,ioos:station:TCOON:003:1,2009-03-07T10:00:00Z,26.8015,-97.4706,0.0,9.5,162.0,11.1,'11111222,11111222,11111222' 
TCOON,ioos:station:TCOON:003:1,2009-03-07T11:00:00Z,26.8015,-97.4706,0.0,8.7,162.0,11.0,'11111222,11111222,11111222' 
TCOON,ioos:station:TCOON:003:1,2009-03-07T12:00:00Z,26.8015,-97.4706,0.0,7.8,161.0,8.8,'11111222,11111222,11111222' 
TCOON,ioos:station:TCOON:003:1,2009-03-07T13:00:00Z,26.8015,-97.4706,0.0,8.3,164.0,9.8,'11111222,11111222,11111222' 
TCOON,ioos:station:TCOON:003:1,2009-03-07T14:00:00Z,26.8015,-97.4706,0.0,9.6,165.0,11.3,'11111222,11111222,11111222' 
TCOON,ioos:station:TCOON:003:1,2009-03-07T15:00:00Z,26.8015,-97.4706,0.0,11.3,165.0,13.4,'11111222,11111222,11111222' 
TCOON,ioos:station:TCOON:003:1,2009-03-07T16:00:00Z,26.8015,-97.4706,0.0,11.6,165.0,13.9,'11111222,11111222,11111222' 
TCOON,ioos:station:TCOON:003:1,2009-03-07T17:00:00Z,26.8015,-97.4706,0.0,10.7,169.0,12.7,'11111222,11111222,11111222' 
TCOON,ioos:station:TCOON:003:1,2009-03-07T18:00:00Z,26.8015,-97.4706,0.0,14.5,161.0,16.7,'11111222,11111222,11111222' 
TCOON,ioos:station:TCOON:003:1,2009-03-07T19:00:00Z,26.8015,-97.4706,0.0,13.0,167.0,15.5,'11111222,11111222,11111222' 
TCOON,ioos:station:TCOON:003:1,2009-03-07T20:00:00Z,26.8015,-97.4706,0.0,12.0,165.0,14.3,'11111222,11111222,11111222' 
TCOON,ioos:station:TCOON:003:1,2009-03-07T21:00:00Z,26.8015,-97.4706,0.0,13.3,163.0,15.1,'11111222,11111222,11111222' 
TCOON,ioos:station:TCOON:003:1,2009-03-07T22:00:00Z,26.8015,-97.4706,0.0,12.0,165.0,14.0,'11111222,11111222,11111222' 
TCOON,ioos:station:TCOON:003:1,2009-03-07T23:00:00Z,26.8015,-97.4706,0.0,9.7,149.0,10.9,'11111222,11111222,11111222' 
TCOON,ioos:station:TCOON:003:1,2009-03-08T00:00:00Z,26.8015,-97.4706,0.0,9.0,162.0,10.4,'11111222,11111222,11111222' 
TCOON,ioos:station:TCOON:003:1,2009-03-08T01:00:00Z,26.8015,-97.4706,0.0,8.8,157.0,10.0,'11111222,11111222,11111222' 
TCOON,ioos:station:TCOON:003:1,2009-03-08T02:00:00Z,26.8015,-97.4706,0.0,9.6,154.0,10.8,'11111222,11111222,11111222' 
TCOON,ioos:station:TCOON:003:1,2009-03-08T03:00:00Z,26.8015,-97.4706,0.0,10.8,158.0,12.0,'11111222,11111222,11111222' 
TCOON,ioos:station:TCOON:003:1,2009-03-08T04:00:00Z,26.8015,-97.4706,0.0,10.8,160.0,13.2,'11111222,11111222,11111222' 
TCOON,ioos:station:TCOON:003:1,2009-03-08T05:00:00Z,26.8015,-97.4706,0.0,12.0,165.0,14.1,'11111222,11111222,11111222' 
TCOON,ioos:station:TCOON:003:1,2009-03-08T06:00:00Z,26.8015,-97.4706,0.0,9.8,166.0,11.7,'11111222,11111222,11111222' 
TCOON,ioos:station:TCOON:003:1,2009-03-08T07:00:00Z,26.8015,-97.4706,0.0,10.9,160.0,12.9,'11111222,11111222,11111222' 
TCOON,ioos:station:TCOON:003:1,2009-03-08T08:00:00Z,26.8015,-97.4706,0.0,9.1,164.0,10.3,'11111222,11111222,11111222' 
TCOON,ioos:station:TCOON:003:1,2009-03-08T09:00:00Z,26.8015,-97.4706,0.0,8.2,171.0,9.7,'11111222,11111222,11111222' 
TCOON,ioos:station:TCOON:003:1,2009-03-08T10:00:00Z,26.8015,-97.4706,0.0,7.9,173.0,9.3,'11111222,11111222,11111222' 
TCOON,ioos:station:TCOON:003:1,2009-03-08T11:00:00Z,26.8015,-97.4706,0.0,6.7,146.0,8.1,'11111222,11111222,11111222' 
TCOON,ioos:station:TCOON:003:1,2009-03-08T12:00:00Z,26.8015,-97.4706,0.0,6.5,142.0,7.4,'11111222,11111222,11111222' 
TCOON,ioos:station:TCOON:003:1,2009-03-08T13:00:00Z,26.8015,-97.4706,0.0,5.7,145.0,6.5,'11111222,11111222,11111222' 
TCOON,ioos:station:TCOON:003:1,2009-03-08T14:00:00Z,26.8015,-97.4706,0.0,7.9,152.0,9.3,'11111222,11111222,11111222' 
TCOON,ioos:station:TCOON:003:1,2009-03-08T15:00:00Z,26.8015,-97.4706,0.0,9.3,152.0,11.5,'11111222,11111222,11111222' 
TCOON,ioos:station:TCOON:003:1,2009-03-08T16:00:00Z,26.8015,-97.4706,0.0,8.9,166.0,10.5,'11111222,11111222,11111222' 
TCOON,ioos:station:TCOON:003:1,2009-03-08T17:00:00Z,26.8015,-97.4706,0.0,7.6,157.0,8.8,'11111222,11111222,11111222' 
TCOON,ioos:station:TCOON:003:1,2009-03-08T18:00:00Z,26.8015,-97.4706,0.0,8.4,154.0,9.9,'11111222,11111222,11111222' 
TCOON,ioos:station:TCOON:003:1,2009-03-08T19:00:00Z,26.8015,-97.4706,0.0,8.3,146.0,9.4,'11111222,11111222,11111222' 
TCOON,ioos:station:TCOON:003:1,2009-03-08T20:00:00Z,26.8015,-97.4706,0.0,8.7,145.0,10.5,'11111222,11111222,11111222' 
TCOON,ioos:station:TCOON:003:1,2009-03-08T21:00:00Z,26.8015,-97.4706,0.0,8.7,145.0,10.0,'11111222,11111222,11111222' 
TCOON,ioos:station:TCOON:003:1,2009-03-08T22:00:00Z,26.8015,-97.4706,0.0,8.3,136.0,9.1,'11111222,11111222,11111222' 
TCOON,ioos:station:TCOON:003:1,2009-03-08T23:00:00Z,26.8015,-97.4706,0.0,7.4,128.0,8.5,'11111222,11111222,11111222' 
TCOON,ioos:station:TCOON:003:1,2009-03-09T00:00:00Z,26.8015,-97.4706,0.0,6.6,124.0,8.1,'11111222,11111222,11111222' 
TCOON,ioos:station:TCOON:003:1,2009-03-09T01:00:00Z,26.8015,-97.4706,0.0,7.9,132.0,9.0,'11111222,11111222,11111222' 
TCOON,ioos:station:TCOON:003:1,2009-03-09T02:00:00Z,26.8015,-97.4706,0.0,8.0,150.0,9.4,'11111222,11111222,11111222' 
TCOON,ioos:station:TCOON:003:1,2009-03-09T03:00:00Z,26.8015,-97.4706,0.0,7.7,157.0,8.5,'11111222,11111222,11111222' 
TCOON,ioos:station:TCOON:003:1,2009-03-09T04:00:00Z,26.8015,-97.4706,0.0,8.4,164.0,9.7,'11111222,11111222,11111222' 
TCOON,ioos:station:TCOON:003:1,2009-03-09T05:00:00Z,26.8015,-97.4706,0.0,8.7,174.0,10.0,'11111222,11111222,11111222' 
TCOON,ioos:station:TCOON:003:1,2009-03-09T06:00:00Z,26.8015,-97.4706,0.0,10.0,169.0,11.9,'11111222,11111222,11111222' 
TCOON,ioos:station:TCOON:003:1,2009-03-09T07:00:00Z,26.8015,-97.4706,0.0,9.8,168.0,11.3,'11111222,11111222,11111222' 
TCOON,ioos:station:TCOON:003:1,2009-03-09T08:00:00Z,26.8015,-97.4706,0.0,9.9,166.0,11.6,'11111222,11111222,11111222' 
TCOON,ioos:station:TCOON:003:1,2009-03-09T09:00:00Z,26.8015,-97.4706,0.0,10.6,160.0,12.3,'11111222,11111222,11111222' 
TCOON,ioos:station:TCOON:003:1,2009-03-09T10:00:00Z,26.8015,-97.4706,0.0,9.5,164.0,10.5,'11111222,11111222,11111222' 
TCOON,ioos:station:TCOON:003:1,2009-03-09T11:00:00Z,26.8015,-97.4706,0.0,8.0,159.0,9.6,'11111222,11111222,11111222' 